Location: Unspecified
(48.7670°N, 0.0000°E)
Time: 02:31:08
(UTC+00:00)

SR - Visible Passes

Search period start: 26 June 2019 00:00
Search period end: 06 July 2019 00:00
Orbit: 582 x 874 km, 66.7° (Epoch: 25 June)

Date Brightness Start Highest point End Pass type
(mag) Time Alt. Az. Time Alt. Az. Time Alt. Az.
26 Jun ? 01:36:10 10° SE 01:38:26 14° ESE 01:40:43 10° ENE visible
26 Jun ? 03:15:35 10° SW 03:19:48 74° NW 03:24:13 10° NNE visible
27 Jun ? 02:26:49 15° SSW 02:30:14 55° ESE 02:34:31 10° NE visible
28 Jun ? 01:38:29 17° SSE 01:40:50 27° ESE 01:44:30 10° NE visible
29 Jun ? 00:50:07 11° SE 00:51:36 13° ESE 00:53:40 10° ENE visible
29 Jun ? 02:29:31 16° SW 02:32:56 78° NW 02:37:21 10° NNE visible
30 Jun ? 01:41:07 25° S 01:43:22 52° ESE 01:47:38 10° NE visible
01 Jul ? 00:52:41 22° SE 00:53:59 25° ESE 00:57:35 10° ENE visible
01 Jul ? 02:32:05 12° WSW 02:35:46 43° NW 02:40:03 10° NNE visible
02 Jul ? 00:04:12 12° ESE 00:04:46 12° ESE 00:06:36 10° E visible
02 Jul ? 01:43:36 25° SW 01:46:03 83° NW 01:50:30 10° NE visible
03 Jul ? 00:55:06 34° S 00:56:30 48° ESE 01:00:45 10° NE visible
03 Jul ? 02:35:05 10° W 02:38:46 27° NW 02:42:37 10° NNE visible
04 Jul ? 00:06:33 23° SE 00:07:08 24° ESE 00:10:39 10° ENE visible
04 Jul ? 01:45:56 18° WSW 01:48:52 46° NW 01:53:12 10° NNE visible
04 Jul ? 23:17:59 12° ESE 23:17:59 12° ESE 23:19:28 10° E visible
05 Jul ? 00:57:22 34° SW 00:59:10 88° NW 01:03:38 10° NE visible
05 Jul ? 02:38:50 10° WNW 02:41:54 18° NNW 02:45:06 10° NNE visible
